FW8282 Weather Reports


Display with metric or nautical units.
time (UTC)temp
F
wind
direction
speed
MPH
gust
MPH
rain 1hr
in
rain 24hr
in
rain mn
in
humidity
%
barometer
mb
20260905114544 76 165 0.0 0.0 0.00 0.00 0.00 99 1013.4
20260905114043 76 170 0.0 0.0 0.00 0.00 0.00 99 1013.5
20260905113538 76 176 0.0 0.0 0.00 0.00 0.00 99 1013.3
20260905113034 76 179 0.0 0.0 0.00 0.00 0.00 99 1013.2
20260905112529 76 176 0.0 0.0 0.00 0.00 0.00 99 1013.2
20260905112024 76 176 0.0 0.0 0.00 0.00 0.00 99 1013.0
20260905111519 76 176 0.0 0.0 0.00 0.00 0.00 99 1013.2
20260905111018 76 176 0.0 0.0 0.00 0.00 0.00 99 1013.2
20260905110518 75 176 0.0 0.0 0.00 0.00 0.00 99 1013.2
20260905110013 76 176 0.0 0.0 0.00 0.00 0.00 99 1013.3
20260905105507 76 176 0.0 0.0 0.00 0.00 0.00 99 1013.3
20260905105006 75 176 0.0 0.0 0.00 0.00 0.00 99 1013.1
20260905104503 75 173 0.0 0.0 0.00 0.00 0.00 99 1013.1
20260905103957 75 173 0.0 0.0 0.00 0.00 0.00 99 1013.0
20260905103452 75 172 0.0 0.0 0.00 0.00 0.00 99 1013.1
20260905102948 75 172 0.0 0.0 0.00 0.00 0.00 99 1012.9
20260905102444 75 172 0.0 0.0 0.00 0.00 0.00 99 1013.0
20260905101939 75 172 0.0 0.0 0.00 0.00 0.00 99 1013.1
20260905101438 76 172 0.0 0.0 0.00 0.00 0.00 99 1013.1
20260905100937 76 161 0.0 0.0 0.00 0.00 0.00 99 1013.0
20260905100433 76 177 0.0 0.0 0.00 0.00 0.00 99 1013.1
20260905095932 76 177 0.0 0.0 0.00 0.00 0.00 99 1012.8
20260905095432 76 176 0.0 0.0 0.00 0.00 0.00 99 1013.1
20260905094927 76 174 0.0 0.0 0.00 0.00 0.00 99 1012.8
20260905094423 75 172 0.0 0.0 0.00 0.00 0.00 99 1012.7
20260905093922 76 172 0.0 0.0 0.00 0.00 0.00 99 1012.9
20260905093418 76 172 0.0 0.0 0.00 0.00 0.00 99 1012.8
20260905092913 76 169 0.0 0.0 0.00 0.00 0.00 99 1012.7
20260905092408 76 169 0.0 0.0 0.00 0.00 0.00 99 1012.7
20260905091903 76 169 0.0 0.0 0.00 0.00 0.00 99 1012.5
20260905091403 76 172 0.0 0.0 0.00 0.00 0.00 99 1012.6
20260905090902 76 172 0.0 0.0 0.00 0.00 0.00 99 1012.5
20260905090358 76 169 0.0 0.0 0.00 0.00 0.00 99 1012.5
20260905085856 76 172 0.0 0.0 0.00 0.00 0.00 99 1012.5
20260905085351 76 172 0.0 0.0 0.00 0.00 0.00 99 1012.5
20260905084848 76 176 0.0 0.0 0.00 0.00 0.00 99 1012.4
20260905084346 76 172 0.0 0.0 0.00 0.00 0.00 99 1012.6
20260905083841 76 172 0.0 0.0 0.00 0.00 0.00 99 1011.9
20260905083337 76 169 0.0 0.0 0.00 0.00 0.00 99 1012.4
20260905082832 76 170 0.0 0.0 0.00 0.00 0.00 99 1012.5
20260905082328 76 172 0.0 0.0 0.00 0.00 0.00 99 1012.5
20260905081823 76 175 0.0 0.0 0.00 0.00 0.00 99 1012.5
20260905081318 76 169 0.0 0.0 0.00 0.00 0.00 99 1012.5
20260905080817 76 169 0.0 0.0 0.00 0.00 0.00 99 1012.6
20260905080312 76 169 0.0 0.0 0.00 0.00 0.00 99 1012.5
20260905075811 76 169 0.0 0.0 0.00 0.00 0.00 99 1012.5
20260905075310 76 169 0.0 0.0 0.00 0.00 0.00 99 1012.7
20260905074809 76 169 0.0 0.0 0.00 0.00 0.00 99 1012.5
20260905074306 76 170 0.0 0.0 0.00 0.00 0.00 99 1012.5
20260905073801 77 170 0.0 0.0 0.00 0.00 0.00 99 1012.7
20260905073256 76 176 0.0 0.0 0.00 0.00 0.00 99 1012.7
20260905072755 77 176 0.0 0.0 0.00 0.00 0.00 99 1012.5
20260905072251 77 176 0.0 0.0 0.00 0.00 0.00 99 1012.6
20260905071748 77 172 0.0 0.0 0.00 0.00 0.00 99 1012.7
20260905071243 76 172 0.0 0.0 0.00 0.00 0.00 99 1012.9
20260905070732 77 172 0.0 0.0 0.00 0.00 0.00 99 1012.7
20260905070229 77 172 0.0 0.0 0.00 0.00 0.00 99 1012.8
20260905065727 77 169 0.0 0.0 0.00 0.00 0.00 99 1012.8
20260905065221 77 169 0.0 0.0 0.00 0.00 0.00 99 1012.9
20260905064716 77 169 0.0 0.0 0.00 0.00 0.00 99 1012.7
20260905064212 77 168 0.0 0.0 0.00 0.00 0.00 99 1012.8
20260905063710 77 162 0.0 0.0 0.00 0.00 0.00 99 1013.0
20260905063207 76 162 0.0 0.0 0.00 0.00 0.00 99 1012.8
20260905062703 77 162 0.0 0.0 0.00 0.00 0.00 99 1013.0
20260905062202 77 157 0.0 0.0 0.00 0.00 0.00 99 1012.8
20260905061701 77 162 0.0 0.0 0.00 0.00 0.00 99 1012.9
20260905061156 77 169 0.0 0.0 0.00 0.00 0.00 99 1012.9
20260905060652 77 165 0.0 0.0 0.00 0.00 0.00 99 1012.8
20260905060148 77 156 0.0 0.0 0.00 0.00 0.00 99 1013.1
20260905055646 77 153 0.0 0.0 0.00 0.00 0.00 99 1013.2
20260905055142 77 155 0.0 0.0 0.00 0.00 0.00 99 1013.3
20260905054637 77 155 0.0 0.0 0.00 0.00 0.00 99 1013.4
20260905054133 77 153 0.0 0.0 0.00 0.00 0.00 99 1013.3
20260905053632 77 146 0.0 0.0 0.00 0.00 0.00 99 1013.5
20260905053128 77 155 0.0 0.0 0.00 0.00 0.00 99 1013.4
20260905052627 77 153 0.0 0.0 0.00 0.00 0.00 99 1013.6
20260905052122 77 153 0.0 0.0 0.00 0.00 0.00 99 1013.7
20260905051617 77 153 0.0 0.0 0.00 0.00 0.00 99 1013.7
20260905051114 77 153 0.0 0.0 0.00 0.00 0.00 99 1013.6
20260905050610 77 153 0.0 0.0 0.00 0.00 0.00 99 1013.8
20260905050107 77 156 0.0 0.0 0.00 0.00 0.00 99 1013.7
20260905045606 77 157 0.0 0.0 0.00 0.00 0.00 99 1013.7
20260905045102 77 157 0.0 0.0 0.00 0.00 0.00 99 1013.7
20260905044601 77 156 0.0 0.0 0.00 0.00 0.00 99 1014.0
20260905044056 77 155 0.0 0.0 0.00 0.00 0.00 99 1014.0
20260905043555 77 155 0.0 0.0 0.00 0.00 0.00 99 1014.1
20260905043051 77 156 0.0 0.0 0.00 0.00 0.00 99 1013.9
20260905042549 77 152 0.0 0.0 0.00 0.00 0.00 99 1014.2
20260905042045 77 154 0.0 0.0 0.00 0.00 0.00 99 1014.0
20260905041540 77 154 0.0 0.0 0.00 0.00 0.00 98 1013.7
20260905041036 77 154 0.0 0.0 0.00 0.00 0.00 98 1014.0
20260905040535 77 155 0.0 0.0 0.00 0.00 0.00 98 1013.8
20260905040034 77 154 0.0 0.0 0.00 0.00 0.00 98 1013.8
20260905035529 78 154 0.0 0.0 0.00 0.00 0.00 98 1014.0
20260905035026 78 152 0.0 0.0 0.00 0.00 0.00 98 1013.9
20260905034521 78 164 0.0 0.0 0.00 0.00 0.00 98 1013.9
20260905034021 78 163 0.0 0.0 0.00 0.00 0.00 98 1013.9
20260905033515 78 156 0.0 0.0 0.00 0.00 0.00 98 1014.0
20260905033011 78 156 0.0 0.0 0.00 0.00 0.00 98 1014.1
20260905032506 78 150 0.0 0.0 0.00 0.00 0.00 97 1014.2
20260905032001 78 155 0.0 0.0 0.00 0.00 0.00 97 1014.2
20260905031456 78 146 0.0 0.0 0.00 0.00 0.00 97 1014.4
20260905030951 78 154 0.0 0.0 0.00 0.00 0.00 97 1014.3
20260905030447 78 156 0.0 0.0 0.00 0.00 0.00 97 1014.4
20260905025945 78 151 0.0 0.0 0.00 0.00 0.00 97 1014.4
20260905025441 78 152 0.0 0.0 0.00 0.00 0.00 97 1014.4
20260905024937 78 143 0.0 0.0 0.00 0.00 0.00 97 1014.5
20260905024438 78 153 0.0 0.0 0.00 0.00 0.00 97 1014.3
20260905023933 78 153 0.0 0.0 0.00 0.00 0.00 97 1014.3
20260905023428 78 159 0.0 0.0 0.00 0.00 0.00 97 1014.2
20260905022927 78 154 0.0 0.0 0.00 0.00 0.00 96 1014.2
20260905022423 78 145 0.0 0.0 0.00 0.00 0.00 96 1014.3
20260905021918 78 128 0.0 0.0 0.00 0.00 0.00 96 1014.2
20260905021418 78 139 0.0 0.0 0.00 0.00 0.00 96 1014.1
20260905020913 78 158 0.0 0.0 0.00 0.00 0.00 95 1014.2
20260905020413 78 152 0.0 0.0 0.00 0.00 0.00 95 1014.1
20260905015912 78 123 0.0 0.0 0.00 0.00 0.00 95 1014.3
20260905015410 79 148 0.0 0.0 0.00 0.00 0.00 95 1014.2
20260905014910 79 51 0.0 0.0 0.00 0.00 0.00 95 1014.0
20260905014406 79 146 0.0 0.0 0.00 0.00 0.00 94 1013.9
20260905013901 79 151 0.0 0.0 0.00 0.00 0.00 94 1014.2
20260905013357 79 152 0.0 0.0 0.00 0.00 0.00 94 1014.0
20260905012852 79 127 0.0 0.0 0.00 0.00 0.00 94 1013.9
20260905012347 79 154 0.0 0.0 0.00 0.00 0.00 93 1014.0
20260905011844 79 145 0.0 0.0 0.00 0.00 0.00 93 1013.8
20260905011339 79 142 0.0 0.0 0.00 0.00 0.00 93 1013.9
20260905010835 80 117 0.0 0.0 0.00 0.00 0.00 93 1013.7
20260905010330 80 156 0.0 0.0 0.00 0.00 0.00 94 1013.7
20260905005826 80 127 0.0 0.0 0.00 0.00 0.00 94 1013.7
20260905005321 80 151 0.0 0.0 0.00 0.00 0.00 95 1013.6
20260905004816 80 132 0.0 0.0 0.00 0.00 0.00 95 1013.5
20260905004311 80 127 0.0 0.0 0.00 0.00 0.00 95 1013.7
20260905003806 80 159 0.0 0.0 0.00 0.00 0.00 94 1013.9
20260905003302 80 129 0.0 0.0 0.00 0.00 0.00 94 1013.8
20260905002757 80 124 0.0 0.0 0.00 0.00 0.00 93 1013.4
20260905002257 80 155 0.0 0.0 0.00 0.00 0.00 93 1013.4
20260905001752 80 151 0.0 0.0 0.00 0.00 0.00 93 1013.5
20260905001252 81 161 0.0 0.0 0.00 0.00 0.00 92 1013.7
20260905000747 81 128 0.0 0.0 0.00 0.00 0.00 91 1013.6
20260905000243 81 134 0.0 0.0 0.00 0.00 0.00 90 1013.9
20260904235738 82 102 0.0 0.0 0.00 0.00 0.00 91 1013.9
20260904235232 82 120 0.0 0.0 0.00 0.00 0.00 91 1014.0
20260904234727 83 128 0.0 0.0 0.00 0.00 0.00 91 1014.0
20260904234222 83 154 0.0 0.0 0.00 0.00 0.00 90 1013.9
20260904233718 84 202 0.0 0.0 0.00 0.00 0.00 89 1013.9
20260904233214 84 132 0.0 0.0 0.00 0.00 0.00 89 1014.0
20260904232711 85 162 0.0 0.0 0.00 0.00 0.00 88 1014.0
20260904232207 85 141 0.0 0.0 0.00 0.00 0.00 88 1013.8
20260904231701 86 140 0.0 0.0 0.00 0.00 0.00 86 1014.1
20260904231156 86 149 0.0 0.0 0.00 0.00 0.00 85 1014.0
20260904230651 87 98 0.0 0.0 0.00 0.00 0.00 84 1013.7
20260904230146 88 144 0.0 0.0 0.00 0.00 0.00 83 1013.5
20260904225644 88 167 0.0 0.0 0.00 0.00 0.00 83 1013.3
20260904225139 88 151 0.0 0.0 0.00 0.00 0.00 84 1013.3
20260904224633 87 135 0.0 0.0 0.00 0.00 0.00 85 1013.3
20260904224127 86 134 0.0 0.0 0.00 0.00 0.00 85 1013.2
20260904223627 85 168 0.0 0.0 0.00 0.00 0.00 86 1013.1
20260904223122 86 155 0.0 0.0 0.00 0.00 0.00 86 1013.2
20260904222618 86 177 0.0 0.0 0.00 0.00 0.00 85 1013.1
20260904222113 86 164 0.0 0.0 0.00 0.00 0.00 83 1012.9
20260904221608 86 177 0.0 0.0 0.00 0.00 0.00 82 1012.7
20260904221108 88 183 0.0 0.0 0.00 0.00 0.00 82 1012.7
20260904220603 89 122 0.0 0.0 0.00 0.00 0.00 79 1012.7
20260904220058 89 232 0.0 1.0 0.00 0.00 0.00 79 1012.7
20260904215558 89 342 0.0 0.0 0.00 0.00 0.00 80 1012.8
20260904215054 90 253 0.0 0.0 0.00 0.00 0.00 78 1012.8
20260904214549 91 257 0.0 0.0 0.00 0.00 0.00 76 1013.0
20260904214044 91 318 0.0 0.0 0.00 0.00 0.00 76 1013.0
20260904213542 91 260 0.0 0.0 0.00 0.00 0.00 78 1012.4
20260904213039 91 213 1.0 2.0 0.00 0.00 0.00 77 1012.4
20260904212538 90 199 0.0 0.0 0.00 0.00 0.00 78 1012.7
20260904212034 90 272 0.0 0.0 0.00 0.00 0.00 78 1012.8
20260904211534 90 9 0.0 0.0 0.00 0.00 0.00 79 1012.5
20260904211029 89 277 0.0 1.0 0.00 0.00 0.00 79 1012.4
20260904210528 89 274 0.0 0.0 0.00 0.00 0.00 79 1012.6
20260904210025 89 292 1.0 2.0 0.00 0.00 0.00 80 1012.6
20260904205520 89 303 5.0 7.0 0.00 0.00 0.00 78 1012.4
20260904205016 89 297 4.0 6.0 0.00 0.00 0.00 79 1012.5
20260904204512 89 317 3.0 6.0 0.00 0.00 0.00 78 1012.4
20260904204008 89 259 1.0 5.0 0.00 0.00 0.00 79 1012.3
20260904203504 89 273 0.0 1.0 0.00 0.00 0.00 80 1012.7
20260904203000 89 271 0.0 0.0 0.00 0.00 0.00 79 1012.5
20260904202456 90 300 0.0 0.0 0.00 0.00 0.00 79 1012.5
20260904201952 91 290 3.0 5.0 0.00 0.00 0.00 77 1012.3
20260904201451 92 208 0.0 0.0 0.00 0.00 0.00 76 1012.1
20260904200948 93 283 0.0 0.0 0.00 0.00 0.00 70 1012.4
20260904200445 95 266 0.0 1.0 0.00 0.00 0.00 69 1012.5
20260904195941 95 188 0.0 0.0 0.00 0.00 0.00 69 1012.8
20260904195439 93 187 0.0 0.0 0.00 0.00 0.00 72 1012.5
20260904194938 92 220 0.0 0.0 0.00 0.00 0.00 72 1012.8
20260904194433 92 270 1.0 2.0 0.00 0.00 0.00 74 1013.0
20260904193928 91 224 0.0 0.0 0.00 0.00 0.00 74 1012.8
20260904193423 90 238 0.0 0.0 0.00 0.00 0.00 76 1012.9
20260904192919 89 219 0.0 0.0 0.00 0.00 0.00 75 1013.1
20260904192414 89 170 0.0 0.0 0.00 0.00 0.00 75 1013.2
20260904191910 89 222 0.0 0.0 0.00 0.00 0.00 74 1013.1
20260904191407 90 219 0.0 0.0 0.00 0.00 0.00 73 1013.3
20260904190903 90 171 0.0 0.0 0.00 0.00 0.00 73 1013.2
20260904190358 90 213 0.0 0.0 0.00 0.00 0.00 72 1013.2
20260904185855 91 252 0.0 0.0 0.00 0.00 0.00 71 1013.3
20260904185350 92 279 1.0 3.0 0.00 0.00 0.00 68 1013.6
20260904184849 93 274 6.0 9.0 0.00 0.00 0.00 67 1013.4
20260904184344 93 204 0.0 2.0 0.00 0.00 0.00 72 1013.3
20260904183840 92 321 0.0 0.0 0.00 0.00 0.00 70 1013.3
20260904183335 91 208 1.0 5.0 0.00 0.00 0.00 70 1013.5
20260904182830 92 264 0.0 0.0 0.00 0.00 0.00 72 1013.5
20260904182325 92 243 0.0 0.0 0.00 0.00 0.00 74 1013.5
20260904181821 92 241 0.0 0.0 0.00 0.00 0.00 72 1013.6
20260904181320 92 247 0.0 0.0 0.00 0.00 0.00 72 1013.6
20260904180816 92 255 3.0 7.0 0.00 0.00 0.00 73 1014.0
20260904180311 92 197 0.0 0.0 0.00 0.00 0.00 71 1013.9
20260904175809 91 203 0.0 0.0 0.00 0.00 0.00 73 1014.0
20260904175308 92 278 0.0 0.0 0.00 0.00 0.00 71 1013.9
20260904174803 91 231 0.0 0.0 0.00 0.00 0.00 74 1014.2
20260904174259 91 211 0.0 0.0 0.00 0.00 0.00 72 1014.0
20260904173755 91 238 0.0 0.0 0.00 0.00 0.00 75 1014.1
20260904173250 90 274 1.0 2.0 0.00 0.00 0.00 74 1014.2
20260904172746 91 238 0.0 0.0 0.00 0.00 0.00 74 1014.3
20260904172245 90 217 0.0 0.0 0.00 0.00 0.00 75 1014.3
20260904171740 89 258 2.0 6.0 0.00 0.00 0.00 76 1014.4
20260904171235 91 248 3.0 5.0 0.00 0.00 0.00 74 1014.5
20260904170731 92 221 0.0 0.0 0.00 0.00 0.00 72 1014.3
20260904170228 91 197 0.0 0.0 0.00 0.00 0.00 74 1014.6
20260904165726 93 179 0.0 0.0 0.00 0.00 0.00 71 1014.5
20260904165221 91 213 0.0 0.0 0.00 0.00 0.00 72 1014.6
20260904164715 91 210 0.0 1.0 0.00 0.00 0.00 74 1014.6
20260904164210 90 210 0.0 0.0 0.00 0.00 0.00 73 1014.9
20260904163706 90 205 0.0 0.0 0.00 0.00 0.00 75 1014.8
20260904163201 91 256 0.0 0.0 0.00 0.00 0.00 74 1014.7
20260904162700 91 259 1.0 1.0 0.00 0.00 0.00 76 1014.9
20260904162155 93 203 0.0 0.0 0.00 0.00 0.00 75 1015.2
20260904161651 90 158 0.0 0.0 0.00 0.00 0.00 77 1014.9
20260904161146 91 212 0.0 0.0 0.00 0.00 0.00 77 1014.9
20260904160642 90 183 0.0 0.0 0.00 0.00 0.00 78 1015.0
20260904160137 89 207 0.0 0.0 0.00 0.00 0.00 78 1015.2
20260904155632 90 220 0.0 0.0 0.00 0.00 0.00 79 1015.0
20260904155126 91 228 0.0 0.0 0.00 0.00 0.00 78 1015.0
20260904154624 91 214 0.0 0.0 0.00 0.00 0.00 79 1015.0
20260904154119 89 209 0.0 0.0 0.00 0.00 0.00 83 1015.3
20260904153614 88 260 0.0 0.0 0.00 0.00 0.00 83 1015.1
20260904153110 88 187 0.0 0.0 0.00 0.00 0.00 81 1014.9
20260904152606 87 226 0.0 0.0 0.00 0.00 0.00 84 1015.1
20260904152101 88 233 0.0 1.0 0.00 0.00 0.00 83 1015.0
20260904151556 88 166 0.0 0.0 0.00 0.00 0.00 82 1014.9
20260904151055 89 263 3.0 3.0 0.00 0.00 0.00 83 1014.7
20260904150550 90 195 0.0 0.0 0.00 0.00 0.00 81 1014.9
20260904150045 89 159 0.0 0.0 0.00 0.00 0.00 84 1014.9
20260904145544 89 118 0.0 0.0 0.00 0.00 0.00 84 1014.6
20260904145039 89 143 0.0 0.0 0.00 0.00 0.00 83 1015.0
20260904144535 88 123 0.0 0.0 0.00 0.00 0.00 84 1014.9
20260904144031 87 193 0.0 0.0 0.00 0.00 0.00 87 1014.9
20260904143526 86 251 0.0 0.0 0.00 0.00 0.00 89 1014.6
20260904143023 84 210 0.0 0.0 0.00 0.00 0.00 94 1014.7
20260904142519 84 163 0.0 0.0 0.00 0.00 0.00 98 1014.9
20260904142019 83 184 0.0 0.0 0.00 0.00 0.00 99 1014.5
20260904141515 82 157 0.0 0.0 0.00 0.00 0.00 99 1014.4
20260904141010 81 176 0.0 0.0 0.00 0.00 0.00 99 1014.8
20260904140505 81 220 0.0 0.0 0.00 0.00 0.00 99 1014.7
20260904140004 81 182 0.0 0.0 0.00 0.00 0.00 99 1014.5
20260904135458 81 156 0.0 0.0 0.00 0.00 0.00 99 1014.6
20260904134955 80 157 0.0 0.0 0.00 0.00 0.00 99 1014.3
20260904134454 80 67 0.0 0.0 0.00 0.00 0.00 99 1014.7
20260904133949 80 183 0.0 0.0 0.00 0.00 0.00 99 1014.3
20260904133444 79 81 0.0 0.0 0.00 0.00 0.00 99 1014.4
20260904132940 79 195 0.0 0.0 0.00 0.00 0.00 99 1014.5
20260904132435 79 163 0.0 0.0 0.00 0.00 0.00 99 1014.3
20260904131934 79 190 0.0 0.0 0.00 0.00 0.00 99 1014.6
20260904131429 79 146 0.0 0.0 0.00 0.00 0.00 99 1014.7
20260904130925 78 161 0.0 0.0 0.00 0.00 0.00 99 1014.7
20260904130424 78 155 0.0 0.0 0.00 0.00 0.00 99 1014.7
20260904125919 78 152 0.0 0.0 0.00 0.00 0.00 99 1014.5
20260904125416 79 203 0.0 0.0 0.00 0.00 0.00 99 1014.4
20260904124915 78 162 0.0 0.0 0.00 0.00 0.00 99 1014.3
20260904124411 78 142 0.0 0.0 0.00 0.00 0.00 99 1014.3
20260904123907 77 167 0.0 0.0 0.00 0.00 0.00 99 1014.3
20260904123407 77 156 0.0 0.0 0.00 0.00 0.00 99 1014.3
20260904122903 77 159 0.0 0.0 0.00 0.00 0.00 99 1014.3
20260904122402 77 168 0.0 0.0 0.00 0.00 0.00 99 1014.1
20260904121856 77 158 0.0 0.0 0.00 0.00 0.00 99 1014.2
20260904121353 77 169 0.0 0.0 0.00 0.00 0.00 99 1014.1
20260904120849 76 152 0.0 0.0 0.00 0.00 0.00 99 1013.9
20260904120345 76 157 0.0 0.0 0.00 0.00 0.00 99 1014.0
20260904115839 76 156 0.0 0.0 0.00 0.00 0.00 99 1014.0
20260904115335 76 151 0.0 0.0 0.00 0.00 0.00 99 1013.8